Location: Newark
(48.1500°N, 2.9667°W)
Time: 21:57:22
(UTC+00:00)

Transit 2A - Pass Details

Date: 27 January 2020
Orbit: 600 x 959 km, 66.7° (Epoch: 19 February)

Event Time Altitude Azimuth Distance (km) Brightness Sun altitude
Rises 20:06:29 0° 221° (SW) 2,880 9.4 -30.5°
Reaches altitude 10° 20:08:46 10° 224° (SW) 1,957 8.5 -30.9°
Enters shadow 20:10:21 22° 229° (SW) 1,347 7.6 -31.2°
Maximum altitude 20:13:06 66° 307° (NW) 661 - -31.6°
Drops below altitude 10° 20:17:26 10° 30° (NNE) 1,963 - -32.3°
Sets 20:19:44 0° 34° (NE) 2,891 - -32.7°
